Regional Weather Roundup
Issued by NWS

Home | Current Version | Previous Version | Graphics & Text | Print | Product List | Glossary On
Versions: 1 2 3 4 5 6 7 8 9 10 11 12 13 14 15 16 17 18 19 20 21 22 23 24 25 26 27 28 29 30 31 32 33 34 35 36 37 38 39 40 41 42 43 44 45 46 47 48 49 50
000
ASUS43 KLMK 291402
RWRKY
KENTUCKY REGIONAL WEATHER ROUNDUP
NATIONAL WEATHER SERVICE LOUISVILLE KY
1000 AM EDT THU SEP 29 2016

NOTE "FAIR" INDICATES FEW OR NO CLOUDS BELOW 12,000 FEET
WITH NO SIGNIFICANT WEATHER AND/OR OBSTRUCTIONS TO VISIBILITY.

KYZ001>023-026-027-061>063-070>075-291500-
WESTERN AND SOUTH CENTRAL KENTUCKY

CITY           SKY/WX    TMP DP  RH WIND       PRES   REMARKS
PADUCAH        CLOUDY    56  51  84 NW8       30.10S
HENDERSON      CLOUDY    55  48  76 W6        30.06R
OWENSBORO      NOT AVBL
HOPKINSVILLE   PTSUNNY   55  51  86 W9        30.07R
BOWLING GREEN  CLOUDY    55  51  86 W6        30.07R
GLASGOW        NOT AVBL
$$

KYZ024-025-028>034-038-045-046-053-291500-
NORTH CENTRAL KENTUCKY

CITY           SKY/WX    TMP DP  RH WIND       PRES   REMARKS
LOUISVILLE/SDF LGT RAIN  56  52  86 CALM      30.05S FOG
LOUISVILLE/LOU CLOUDY    56  52  86 CALM      30.06R
FORT KNOX      PTSUNNY   52  52 100 N2        30.04R
$$

KYZ035>037-039>044-047>052-055>060-089>105-291500-
NORTHEAST KENTUCKY

CITY           SKY/WX    TMP DP  RH WIND       PRES   REMARKS
LEXINGTON      CLOUDY    56  52  86 CALM      30.05R
COVINGTON      CLOUDY    57  53  86 SE5       30.05S
FRANKFORT      CLOUDY    55  51  86 NW3       30.05R
$$

KYZ054-064>069-076>088-106>120-291500-
SOUTHEAST KENTUCKY

CITY           SKY/WX    TMP DP  RH WIND       PRES   REMARKS
JACKSON        CLOUDY    55  53  93 CALM      30.03S FOG
LONDON         CLOUDY    55  50  83 N3        30.05R
SOMERSET       CLOUDY    54  52  94 CALM      30.07R
MIDDLESBORO    CLOUDY    56  53  89 NE3       30.04R
MONTICELLO     PTSUNNY   54  51  90 N12       30.07S
$$





USA.gov is the U.S. government's official web portal to all federal, state and local government web resources and services.